STARLINK-1861 (47148 NORAD) Tracking and Keplerian Element Data

This shows tracking and keplerian element data for the satellite.

Feedback or suggestion? Click here.




ElementValue
Catalog47148
NameSTARLINK-1861
Epoch Orbit182
Epoch Day20.91667824
Epoch Year2021
RAAN74.1415
Inclination53.0549
Eccentricity0.0001399
Argument of Perigee37.1948
Mean Anonmoly51.0038
Mean Motion15.62719338
Decay Rate0.00045501
L11 47148U 20088AC 21020.91667824 .00045501 00000-0 50064-3 0 9993
L22 47148 53.0549 74.1415 0001399 37.1948 51.0038 15.62719338 1821

Live tracking and technical data element details for STARLINK-1861 (NORAD 47148). STARLINK-1861 can be tracked NOW for your location showing map with azimuth and elevation plus other details from your city location.

Track the satellite on the map from your city or location and see movement details for azimuth, elevation, latitude, longitude, range, height, and movement on the map or in text.







IsCatalogInMostPopularTable: catalog: 47148, numindb: 21
Update: records affected: 1



GetName: 47148 STARLINK-1861

Hit Count: updated at: Sat, 23 Jan 2021 18:24:27 GMT